www.pogodaiklimat.ru

Погода и климат >> Архив погоды >> Финляндия >> Соданкюля


ПОГОДА в Соданкюля

  • Прогноз погоды в Соданкюля
  • Монитор погоды в Соданкюля

АРХИВ ПОГОДЫ в Соданкюля

Время (UTC), дата Ветер
(напр.,м/с)
 
Видим.   Явления Облачность Т
(С)
Тd
(С)
f
(%)
Тe
(С)
Тes
(С)
Комфортность P
(гПа)
Po
(гПа)
Тmin
(С)
Tmax
(С)
R
(мм)
R24
(мм)
S
(см)
21 15.09 СЗ 1-2
{2}
40 км 1/0
[]
-1.1 -1.7 96 -3 -3 995.9 973.7
00 16.09 С 3-5
{5}
45 км 6/0
[]
-0.3 -0.3 100 -5 -5 995.5 973.3
03 16.09 С 3-4
{5}
45 км 9/9 1000 м
[]
+2.6 +2.2 97 -2 -2 994.6 972.7
06 16.09 С 3-5
{7}
14 км морось {дождь} 9/9 100 м
[]
+3.4 +3.2 99 -1 -1 994.2 972.4 -1.6 +3.4 0.7
09 16.09 С 3-6
{6}
50 км в посл. час морось {дождь} 9/9 100 м
[]
+6.2 +5.8 97 +3 +3 994.6 973.0
12 16.09 СВ 3-6
{9}
50 км {ливн. осадки, дождь} 9/9 600 м
[]
+8.1 +3.6 73 +6 +6 995.6 974.1
15 16.09 С 2-3
{4}
50 км {ливн. осадки, дождь} 9/9 600 м
[]
+7.6 +4.9 83 +6 +6 996.5 975.0
18 16.09 С 2-6
{6}
25 км слаб. ливневой дождь 9/9 300 м
[]
+6.1 +4.0 86 +4 +4 997.1 975.5 +3.4 +8.7 0.6
21 16.09 -5
{5}
50 км {ливн. осадки} 10/10 300 м
[]
+5.9 +4.2 89 997.7 976.0
00 17.09 С 2-4
{4}
50 км {ливн. осадки} 10/0 300 м
[]
+5.8 +4.3 90 +3 +3 998.2 976.5
03 17.09 С 2 45 км 10/6 300 м
[]
+5.5 +4.6 94 +3 +3 998.8 977.0
06 17.09 СВ 3-5
{7}
45 км 9/1 600 м
[]
+5.3 +2.8 84 +2 +2 1000.1 978.3 +5.2 +6.1
09 17.09 СВ 4-7
{7}
50 км 9/4 600 м
[]
+6.5 +1.6 71 +3 +4 1001.6 979.8
12 17.09 СВ 4-9
{9}
35 км слаб. ливневой дождь 6/6 600 м
[]
+6.7 +0.6 65 +3 +4 1002.7 981.0
15 17.09 СВ 2-4
{6}
50 км {ливн. осадки, морось} 4/1 1500 м
[]
+6.4 -0.1 63 +4 +5 1003.6 981.8
18 17.09 С 2-3
{3}
50 км {ливн. осадки, морось} ясно +1.5 -1.0 83 -2 -2 1005.0 982.8 +1.5 +7.9
21 17.09 С 2-3
{3}
45 км 9/0
[]
-0.6 -0.8 99 -5 -5 1006.7 984.3
00 18.09 СЗ 2-3
{3}
21 км ясно -2.0 -2.2 99 -6 -6 1007.6 985.0
03 18.09 СЗ 2-2
{2}
35 км 9/0 1000 м
[]
-1.9 -1.9 100 -6 -6 1008.2 985.6
06 18.09 З 1-2
{3}
45 км 9/9 1000 м
[]
+1.3 +1.3 100 -1 -1 1008.6 986.3 -2.4 +1.5
09 18.09 -2
{3}
50 км 1/0 600 м
[]
+5.1 -0.4 68 1009.1 987.1
12 18.09 СВ 1-2
{8}
50 км в посл. час дождь {ливн. осадки} 1/0 1000 м
[]
+4.9 +1.0 76 +4 +7 1009.5 987.5
15 18.09 Ю 2-2
{2}
50 км {ливн. осадки, дождь} 1/0 1000 м
[]
+2.8 +2.1 95 -1 -0 1009.9 987.7
18 18.09 СЗ 2-2
{3}
50 км {ливн. осадки, дождь} 1/1
[]
-0.3 -0.7 97 -4 -4 1010.5 988.0 -0.3 +6.7 0.3
21 18.09 СЗ 2-4
{4}
45 км ясно -1.1 -1.1 100 -5 -5 1011.0 988.4
00 19.09 СЗ 2-3
{3}
50 км ясно -3.2 -3.4 99 -8 -8 1011.6 988.8
03 19.09 СЗ 2-3
{4}
50 км 1/0 600 м
[]
-4.6 -5.0 97 -9 -9 1011.6 988.8
06 19.09 З 2-3
{4}
45 км {ливн. осадки, осадки} 6/6 600 м
[]
-1.0 -1.0 100 -5 -5 1011.6 989.0 -4.9 -0.3
09 19.09 З 2-3
{4}
40 км {ливн. осадки, туман} 4/1 300 м
[]
+3.7 +0.9 82 +1 +3 1011.8 989.6
12 19.09 З 4-7
{7}
50 км {ливн. осадки, туман} 9/9 1000 м
[]
+5.6 -1.4 61 +2 +2 1011.2 989.2
15 19.09 З 2-4
{8}
50 км в посл. час дождь {ливн. осадки} 4/1 100 м
[]
+3.0 +1.0 87 -0 0 1011.2 989.0 0.1
18 19.09 З 3 50 км {ливн. осадки, дождь} 10/10
[]
+0.9 -0.4 91 -4 -4 1011.1 988.7 -1.0 +6.4 0.1
21 19.09 З 3-5
{6}
50 км 10/6 1500 м
[]
+1.0 -0.8 88 -4 -4 1010.4 988.0
00 20.09 З 3-5
{6}
50 км 10/6 1000 м
[]
+1.6 -0.7 85 -3 -3 1009.8 987.5
03 20.09 СЗ 2-6
{6}
50 км 1/0
[]
+1.2 -1.2 84 -2 -2 1009.0 986.7
06 20.09 З 3 50 км ясно +2.1 -0.7 82 -2 -2 1009.1 986.9 0.0 +2.1 <0.5
09 20.09 СЗ 3-6
{8}
45 км 4/4 600 м
[]
+5.8 -0.6 63 +3 +4 1008.9 987.0
12 20.09 С 3-7
{10}
50 км в посл. час морось {ливн. осадки, дождь} 9/6 1000 м
[]
+6.1 -0.8 61 +3 +4 1009.2 987.2
15 20.09 З 3-5
{5}
50 км {ливн. осадки, туман} 6/6 1000 м
[]
+5.3 +0.7 72 +2 +2 1008.7 986.7
18 20.09 СЗ 2 50 км {ливн. осадки, осадки} 4/1 1000 м
[]
+0.9 -0.2 92 -3 -3 1009.0 986.6 +0.9 +6.8
21 20.09 З 1-2
{2}
50 км {ливн. осадки, дождь} 9/9 600 м
[]
+1.8 +1.4 97 -0 -0 1008.6 986.4 0.1
00 21.09 СЗ 2-2
{3}
50 км {ливн. осадки, дождь} ясно -2.0 -2.3 98 -6 -6 1008.5 985.9
03 21.09 СЗ 1-2
{3}
50 км ясно -3.6 -3.7 99 -6 -6 1008.4 985.7
06 21.09 СЗ 2 50 км 9/9
[]
-1.2 -1.2 100 -5 -5 1008.2 985.7 -4.3 +2.3 0.1 <0.5
09 21.09 З 1-3
{3}
50 км 9/9 1000 м
[]
+2.4 +0.8 89 +1 +1 1008.1 985.9
12 21.09 СЗ 2-5
{6}
50 км {ливн. осадки, туман} 9/9 600 м
[]
+5.3 +0.5 71 +3 +3 1008.0 986.0
15 21.09 СЗ 2-5
{6}
50 км в посл. час дождь {ливн. осадки} ясно +3.6 +1.0 83 +1 +1 1008.7 986.6
18 21.09 СЗ 3 50 км {ливн. осадки, дождь} ясно +0.8 +0.2 96 -4 -4 1010.4 988.0 -1.2 +6.1
21 21.09 СЗ 2-4
{4}
50 км 1/0 1000 м
[]
-0.9 -1.1 99 -5 -5 1012.2 989.7
00 22.09 СЗ 3-5
{5}
50 км ясно -1.2 -1.3 99 -6 -6 1014.3 991.7
03 22.09 СЗ 2-4
{4}
50 км 10/10 200 м
[]
+0.4 +0.2 99 -3 -3 1016.1 993.5
06 22.09 СЗ 3 50 км ясно +1.0 -0.3 91 -4 -3 1017.8 995.3 -1.4 +1.0 <0.5
09 22.09 С 4-7
{8}
50 км 1/0 600 м
[]
+4.2 -0.5 71 0 +2 1018.6 996.3
12 22.09 С 4-11
{11}
50 км 6/6 600 м
[]
+5.1 -1.3 63 +1 +2 1019.3 997.1
15 22.09 С 3-7
{9}
50 км {ливн. осадки, морось} 10/4 1000 м
[]
+5.1 -0.7 66 +2 +2 1020.1 997.8

 

Местоположение метеостанции Соданкюля (Финляндия): широта 67.37 долгота 26.63 высота над уровнем моря 179 м.

В архиве по умолчанию представлена погода в Соданкюля за последнюю неделю. Архивные данные за месяц целиком и за предыдущие месяцы, начиная с января 2011 года, Вы можете получить, выбрав интересующий диапазон дат из раскрывающегося списка и нажав кнопку "Ввод!".


*Определитесь, кто Вы:
робот инопланетянин человек

Внимание! Время в таблицах - всемирное. Для получения местного времени необходимо прибавить поправку, которая равна 1 ч.

Смотрите также архив погоды в соседних городах и на ближайших метеорологических станциях:

Погода в Пюхе (Финляндия) (47 км)
Погода в Савукоски (Финляндия) (67 км)
Погода в Соданкила Локка (Финляндия) (69 км)
Погода на Аэродроме Кемиярви (Финляндия) (76 км)
Погода в Киттиля (Финляндия) (80 км)
Погода в Соданкила Вуотсо (Финляндия) (82 км)
Погода в Киттиля (Финляндия) (84 км)
Погода в Киттила Левитунтури (Финляндия) (88 км)
Погода в Рованиеми Апукка (Финляндия) (92 км)
Погода в Киттила Покка (Финляндия) (96 км)

Пояснения к столбцам:

Ветер - указаны скорость ветра в м/с - средняя за 10 мин, порывы в срок и между сроками (в фигурных скобках) и направление, откуда дует ветер: С - северный, СВ - северо-восточный, В - восточный, ЮВ - юго-восточный, Ю - южный, ЮЗ - юго-западный, З - западный, СЗ - северо-западный.
Видимость - горизонтальная дальность видимости в метрах или километрах. При видимости от 1 до 10 км при отсутствии осадков обычно наблюдается дымка, при ухудшении видимости до 1 км и менее - туман. В сухую погоду видимость может ухудшаться дымом, пылью или мглою.
Явления - указаны атмосферные явления, наблюдавшиеся в срок или в последний час перед сроком; фигурными скобками обозначены явления, наблюдавшиеся между сроками (за 1-3 часа до срока); квадратными скобками обозначены град или гололедные отложения с указанием их диаметра в мм.
Облачность - указаны через наклонную черту общая и нижняя облачность в баллах и высота нижней границы облаков в метрах; квадратными скобками обозначены формы облаков: Ci - перистые, Cs - перисто-слоистые, Cc - перисто-кучевые, Ac - высококучевые, As - высокослоистые, Sc - слоисто-кучевые, Ns - слоисто-дождевые, Cu - кучевые, Cb - кучево-дождевые. Подробнее классификацию облаков см. в Атласе облаков (PDF).
T - Температура воздуха - температура, измеренная на высоте 2 м над землей.
Td - Температура точки росы - температура, при понижении до которой содержащийся в воздухе водяной пар достигнет насыщения.
f - Относительная влажность воздуха - влажноcть воздуха, измеренная на высоте 2 м над землей.
Te - Эффективная температура - температура, которую ощущает одетый по сезону человек в тени. Характеристика душности погоды. При расчете учитывается влияние влажности воздуха и скорости ветра на теплоощущения человека.
Tes - Эффективная температура на солнце - температура, которую ощущает человек, с поправкой на солнечный нагрев. Характеристика знойности погоды. Зависит от высоты солнца над горизонтом, облачности и скорости ветра. Ночью, в пасмурную погоду, а также при ветре 12 м/с и более поправка равна нулю.
P - Атмосферное давление - приведенное к уровню моря атмосферное давление.
Po - Атмосферное давление - измеренное на уровне метеостанции атмосферное давление.
Tmin - Минимальная температура - минимум температуры воздуха на высоте 2 м над землей.
Tmax - Максимальная температура - максимум температуры воздуха на высоте 2 м над землей.
R - Количество осадков - Количество выпавших осадков за период времени, мм. При наведении курсора мыши на число - период времени, за который выпало указанное количество осадков.
R24 - Количество осадков - Количество выпавших осадков за 24 часа, мм.
S - Снежный покров - Высота снежного покрова, см. При наведении курсора мыши на число - состояние снежного покрова и степень покрытия местности в баллах.